RH
82 80 85 96 95 92 90 87 85 84 85 87 86 85 83 82 82 82 82 81 81 82 82 83 82 82 82 84 79 70 33 32
96 96 96 88 92 94 93 90 89 88 86 85 85 84 85 85 84 84 84 83 79 81 85 84 81 79 77 76 71 63 34 30
97 96 95 89 78 89 88 89 87 85 79 82 71 48 45 49 80 86 84 82 78 77 78 78 76 71 66 62 56 33 32 29
97 95 96 94 86 85 74 68 51 47 50 50 42 48 42 46 71 84 80 78 74 69 68 63 57 31 32 47 30 33 28 26
95 95 91 92 91 92 94 67 61 54 52 44 52 50 54 51 55 50 50 57 39 40 39 32 39 34 35 36 31 27 24 21
91 91 85 83 78 69 72 62 59 57 59 56 56 51 58 58 51 48 49 40 46 42 41 44 41 38 35 34 31 23 21 18
90 84 85 83 82 78 68 65 60 56 62 59 53 55 62 57 57 50 45 44 40 41 39 35 35 32 29 28 27 29 28 23
91 92 82 81 69 71 65 62 60 59 59 60 67 62 68 68 63 50 45 39 37 36 32 28 27 28 30 30 29 26 27 30
89 85 78 74 65 59 56 54 52 52 62 74 74 77 73 68 53 46 41 41 45 36 33 30 25 23 28 28 26 29 26 28
66 54 66 73 62 54 51 50 57 63 64 69 70 67 63 57 49 46 44 39 35 34 30 28 28 26 29 25 26 26 29 28
51 56 66 69 64 52 52 59 65 69 78 66 70 64 60 51 48 49 46 39 38 32 33 33 32 28 25 29 31 27 30 21
49 59 70 69 68 66 61 63 76 80 73 67 70 58 58 53 48 49 40 39 38 35 39 35 34 33 24 27 35 30 29 30
55 62 69 67 62 55 57 72 81 83 74 70 67 66 57 53 44 47 43 41 40 44 42 44 39 39 39 35 34 38 38 32
56 58 65 62 48 47 53 62 78 76 61 70 62 61 56 51 48 46 44 42 46 46 45 41 41 42 42 39 35 30 34 33
50 51 53 57 52 46 55 60 66 68 65 71 62 62 54 47 48 46 48 41 42 47 46 48 43 44 47 39 31 28 26 26
45 45 50 56 58 55 62 56 62 61 67 63 55 58 49 46 47 49 48 40 45 46 44 48 48 43 39 35 40 37 28 28
52 51 56 58 64 62 61 60 61 70 89 82 62 58 51 46 48 50 48 42 48 54 54 53 43 40 32 31 34 34 37 41
60 58 59 60 65 68 68 67 73 76 86 83 60 52 52 52 45 49 49 51 53 54 66 68 51 38 33 33 33 33 33 36
61 59 57 59 67 70 77 74 74 72 74 71 54 52 53 54 51 53 49 50 72 82 76 46 42 40 41 34 36 38 37 37
58 56 56 58 67 74 74 70 70 68 71 60 54 52 50 51 53 50 50 81 86 78 55 42 44 46 47 45 38 38 37 37
Wind_Speed
14 14 16 13 14 11 14 18 18 20 21 20 19 16 15 13 13 12 12 14 15 15 14 14 14 12 12 11 9 8 6 6
13 10 8 10 12 14 11 13 15 18 22 21 18 16 15 13 13 13 13 15 17 17 16 17 15 13 12 8 5 5 8 6
14 13 13 8 10 13 12 11 12 15 19 21 16 12 15 13 14 12 15 15 17 18 17 16 15 13 10 4 5 6 5 5
13 16 17 11 6 9 8 8 8 11 14 15 11 12 11 13 12 15 16 17 18 15 13 10 7 6 6 3 6 5 5 5
14 14 17 15 7 5 2 2 4 6 12 11 11 10 10 9 9 9 9 12 9 9 7 5 7 4 6 5 4 4 4 4
17 14 13 15 10 8 6 5 5 5 5 9 8 6 8 8 6 8 8 5 7 7 5 7 7 7 6 6 6 5 4 3
10 9 11 9 10 6 7 6 6 6 7 8 8 8 7 6 7 6 7 8 7 7 7 6 6 6 5 6 6 6 5 4
15 10 11 8 6 7 6 7 8 8 8 8 7 6 6 7 7 7 7 6 6 6 5 5 5 4 6 6 6 5 6 6
15 14 13 15 12 9 8 8 10 8 5 6 8 8 8 9 8 7 6 6 8 7 6 5 4 4 5 4 3 3 4 6
19 16 11 12 10 9 8 10 8 7 6 6 9 10 10 8 7 7 8 6 5 5 4 4 3 3 3 3 2 2 3 4
18 12 8 9 10 8 8 8 7 6 5 7 10 10 11 8 8 8 8 7 5 5 4 2 3 1 1 3 2 2 2 1
16 10 9 10 8 8 7 6 5 5 6 7 9 9 11 10 9 10 8 7 6 5 5 3 2 3 3 3 3 4 3 3
15 11 8 8 8 9 8 7 6 5 6 9 11 9 12 11 9 9 7 7 7 7 5 4 2 0 4 4 3 5 6 5
15 14 12 11 9 9 7 8 6 6 7 8 9 11 11 9 10 10 9 8 7 6 4 2 1 1 4 5 4 2 6 7
18 15 15 14 12 9 6 7 6 7 7 7 7 10 11 10 11 9 9 7 7 6 4 4 3 3 5 4 4 4 8 1
18 16 14 13 13 10 13 9 8 7 7 6 8 10 11 11 11 10 9 6 7 6 5 4 4 4 2 4 5 7 5 6
15 15 14 15 15 13 11 10 7 6 5 6 9 10 11 11 11 10 9 6 5 5 6 6 4 4 4 4 5 5 6 7
15 17 16 15 15 16 15 14 12 10 9 8 10 10 10 12 12 10 8 8 8 6 3 5 5 4 4 4 5 6 6 7
17 19 18 17 17 15 13 14 15 15 13 10 13 10 10 12 12 11 9 9 6 5 4 8 5 5 5 5 5 5 5 6
19 19 18 18 17 17 16 16 11 11 12 11 11 10 10 11 11 10 10 6 5 5 7 7 6 5 7 6 5 5 6 6
Wind_Direction
151 163 143 113 103 113 129 129 128 128 123 116 109 107 104 99 95 94 91 90 88 95 101 97 89 92 89 76 58 2 43 53
93 79 77 103 125 95 90 107 122 122 117 115 111 110 106 103 109 92 100 97 99 98 95 92 92 88 75 74 113 225 45 36
99 95 79 112 125 108 93 91 106 121 117 115 135 131 129 148 86 105 97 99 97 93 98 100 95 81 71 65 284 38 30 21
121 113 98 79 13 83 105 129 147 137 127 133 133 139 135 120 108 101 102 98 92 96 99 121 191 123 120 152 49 37 40 23
117 123 122 127 140 82 19 139 150 131 136 146 135 134 139 134 133 129 130 121 122 133 135 89 77 71 67 49 58 44 18 15
124 126 138 130 150 155 168 176 145 135 144 140 144 144 147 145 139 139 143 134 122 126 109 100 93 81 78 75 55 29 18 16
72 120 141 144 153 149 161 154 147 145 165 156 160 154 143 136 133 136 140 153 137 125 123 120 103 89 73 64 57 47 28 10
128 118 112 133 175 179 162 158 153 177 173 156 155 149 134 132 148 138 143 138 120 125 123 114 95 98 77 55 49 29 46 20
152 177 184 170 170 170 166 168 180 178 149 139 134 137 146 147 147 142 131 109 118 122 118 119 110 94 81 76 87 62 61 31
173 181 183 171 158 166 181 174 175 165 170 158 151 151 153 157 148 139 137 137 131 120 118 107 99 96 62 44 41 45 51 31
176 195 190 170 165 170 182 168 174 165 165 173 168 169 165 156 153 138 156 142 137 131 120 149 133 96 45 12 336 244 221 338
190 204 202 170 162 166 173 165 161 161 176 179 169 174 170 164 154 153 156 144 144 136 136 106 48 12 307 289 303 261 248 259
201 204 195 173 179 183 170 173 173 169 180 178 174 172 179 171 155 157 157 158 144 146 143 152 148 340 285 283 222 227 248 264
204 208 196 196 191 188 186 171 182 190 176 173 183 175 175 173 162 166 169 147 151 155 176 167 264 281 318 291 301 247 199 232
210 211 203 205 198 187 182 160 164 180 183 166 184 176 180 176 176 170 164 163 163 164 174 229 276 194 273 309 302 309 330 323
214 220 214 203 201 186 193 193 189 187 174 170 178 182 183 182 178 170 169 168 165 169 185 225 251 276 217 231 278 302 299 297
213 212 208 196 195 204 198 206 190 172 129 163 196 189 189 187 182 176 174 180 152 140 188 210 216 281 277 288 260 268 260 280
203 204 203 196 199 201 200 196 180 177 167 181 200 196 188 191 186 183 167 153 150 167 200 229 234 247 271 269 274 286 295 294
198 200 204 200 200 199 203 199 185 189 181 190 202 196 193 188 185 178 166 147 136 121 199 236 234 249 243 266 258 268 279 284
195 197 202 198 199 200 202 203 200 197 189 198 207 204 199 178 183 176 146 104 129 195 214 227 225 238 247 248 265 253 260 271